Location: Vancouver
(49.2500°N, 123.1330°W)
Time: 23:04:43
(UTC-08:00)

Vanguard 2 Rocket - Visible Passes

Search period start: 12 December 2017 00:00
Search period end: 22 December 2017 00:00
Orbit: 555 x 3326 km, 32.9° (Epoch: 12 December)

Date Brightness Start Highest point End Pass type
(mag) Time Alt. Az. Time Alt. Az. Time Alt. Az.
12 Dec 10.2 17:39:25 10° SSE 17:46:29 17° SE 17:55:15 10° E visible
12 Dec 9.7 19:47:08 10° SW 19:59:24 37° SSE 20:01:03 36° SE visible
12 Dec 10.1 21:59:23 10° WSW 22:06:51 32° SW 22:06:51 32° SW visible
13 Dec 9.8 18:48:49 10° SSW 18:59:14 30° SSE 19:04:50 25° ESE visible
13 Dec 9.7 20:59:49 10° WSW 21:10:38 42° SSW 21:10:38 42° SSW visible
13 Dec 10.6 23:13:38 10° WSW 23:16:26 17° WSW 23:16:26 17° WSW visible
14 Dec 9.9 17:51:17 10° S 17:59:32 22° SE 18:08:36 13° ESE visible
14 Dec 9.6 20:00:44 10° SW 20:12:57 41° SSE 20:14:24 40° SSE visible
14 Dec 10.1 22:13:29 10° WSW 22:20:12 30° SW 22:20:12 30° SW visible
15 Dec 10.1 16:55:07 10° SSE 17:00:18 14° SE 17:06:39 10° ESE visible
15 Dec 9.6 19:02:08 10° SW 19:12:39 35° SSE 19:18:10 29° SE visible
15 Dec 9.7 21:13:49 10° WSW 21:23:58 41° SSW 21:23:58 41° SSW visible
15 Dec 10.7 23:28:00 10° W 23:29:46 14° WSW 23:29:46 14° WSW visible
16 Dec 9.7 18:04:05 10° SSW 18:12:49 27° SSE 18:21:56 16° ESE visible
16 Dec 9.5 20:14:36 10° SW 20:26:38 43° S 20:27:44 42° SSE visible
16 Dec 10.2 22:27:45 10° WSW 22:33:32 27° WSW 22:33:32 27° WSW visible
17 Dec 9.9 17:06:51 10° S 17:13:27 19° SE 17:22:23 10° E visible
17 Dec 9.5 19:15:49 10° SW 19:26:15 38° SSE 19:31:30 32° SE visible
17 Dec 9.8 21:28:00 10° WSW 21:37:18 38° SSW 21:37:18 38° SSW visible
17 Dec 10.8 23:42:41 10° W 23:43:06 11° W 23:43:06 11° W visible
18 Dec 9.5 18:17:29 10° SSW 18:26:19 32° SSE 18:35:17 18° ESE visible
18 Dec 9.5 20:28:41 10° WSW 20:40:27 42° S 20:41:05 42° S visible
18 Dec 10.3 22:42:14 10° WSW 22:46:53 22° WSW 22:46:53 22° WSW visible
19 Dec 9.6 17:19:43 10° SSW 17:26:49 24° SSE 17:37:09 10° ESE visible
19 Dec 9.4 19:29:46 10° SW 19:40:01 40° S 19:44:52 33° SE visible
19 Dec 9.9 21:42:22 10° WSW 21:50:40 34° SW 21:50:40 34° SW visible
20 Dec 9.4 18:31:14 10° SW 18:40:00 35° SSE 18:48:41 20° ESE visible
20 Dec 9.6 20:42:57 10° WSW 20:54:19 40° S 20:54:30 40° S visible
20 Dec 10.5 22:57:03 10° WSW 23:00:18 18° WSW 23:00:18 18° WSW visible
21 Dec 9.5 17:33:09 10° SSW 17:40:24 28° SSE 17:51:26 10° ESE visible
21 Dec 9.5 19:43:56 10° WSW 19:53:54 39° S 19:58:20 33° SSE visible
21 Dec 10.0 21:56:58 10° WSW 22:04:09 28° SW 22:04:09 28° SW visible
